Lumberton, NC

9:15 PM EST on February 25, 2018 (GMT -0500)
Lumberton Municipal

Weather History for KLBT - July, 2014

Change the Weather History Date:

Thursday, July 3, 2014

  Actual Average Record
Temperature  
Mean Temperature 80 °F 81 °F  
Max Temperature 85 °F 91 °F 97 °F (2012)
Min Temperature 74 °F 71 °F 62 °F (2010)
Degree Days  
Heating Degree Days 0 0  
Month to date heating degree days 0 0  
Since 1 June heating degree days 0 0  
Since 1 July heating degree days 0 0  
Cooling Degree Days 15 16  
Month to date cooling degree days 51 48  
Year to date cooling degree days 797 686  
Since 1 June cooling degree days 509 436  
Growing Degree Days 28 (Base 50)    
Moisture  
Dew Point 73 °F    
Average Humidity 78    
Maximum Humidity 94    
Minimum Humidity 61    
Precipitation  
Precipitation 0.32 in 0.14 in 0.88 in (2001)
Month to date precipitation 0.32 0.41  
Year to date precipitation 25.15 19.82  
Sea Level Pressure  
Sea Level Pressure 29.92 in    
Wind  
Wind Speed 8 mph (East)    
Max Wind Speed 17 mph    
Max Gust Speed 25 mph    
Visibility 8 miles    
Events Rain , Thunderstorm    
T = Trace of Precipitation, MM = Missing Value Source: NWS Daily Summary

Daily Weather History Graph

Daily Weather History Graph

Search for Another Location

Airport or City:

Trip Planner

Search our weather history database for the weather conditions in past years. The results will help you decide how hot, cold, wet, or windy it might be!

Date:

Astronomy

Jul. 03, 2014 Rise Set
Actual Time 6:07 AM EDT 8:32 PM EDT
Civil Twilight 5:38 AM EDT 9:02 PM EDT
Nautical Twilight 5:02 AM EDT 9:38 PM EDT
Astronomical Twilight 4:22 AM EDT 10:17 PM EDT
Moon 11:50 AM EDT (7/3) No Moon Set
Length of Visible Light 15h 23m
Length of Day
14h 25m
Waxing Crescent, 33% of the Moon is Illuminated
Jul 3
Waxing Crescent
Jul 5
First Quarter
Jul 12
Full
Jul 18
Last Quarter
Jul 26
New

Hourly Weather History & Observations

Time (EDT) Temp. Heat Index Dew Point Humidity Pressure Visibility Wind Dir Wind Speed Gust Speed Precip Events Conditions
12:54 AM 78.1 °F - 75.0 °F 90% 29.99 in 8.0 mi SSE 3.5 mph - N/A   Clear
1:54 AM 77.0 °F - 75.0 °F 94% 29.98 in 7.0 mi SE 6.9 mph - N/A   Clear
2:54 AM 77.0 °F - 75.0 °F 94% 29.96 in 7.0 mi SE 5.8 mph - N/A   Clear
3:54 AM 75.0 °F - 73.9 °F 96% 29.95 in 7.0 mi ESE 3.5 mph - N/A   Clear
4:54 AM 75.0 °F - 73.0 °F 94% 29.94 in 8.0 mi ESE 3.5 mph - N/A   Clear
5:54 AM 75.0 °F - 73.9 °F 96% 29.95 in 7.0 mi SE 4.6 mph - N/A   Clear
6:54 AM 75.9 °F - 73.9 °F 94% 29.97 in 6.0 mi NE 3.5 mph - N/A   Clear
7:39 AM 78.1 °F - 75.0 °F 90% 29.98 in 7.0 mi ESE 6.9 mph - N/A   Mostly Cloudy
7:54 AM 78.1 °F - 75.0 °F 90% 29.99 in 7.0 mi ESE 6.9 mph - N/A   Mostly Cloudy
8:06 AM 78.1 °F - 75.0 °F 90% 29.99 in 7.0 mi SE 4.6 mph - N/A   Mostly Cloudy
8:12 AM 78.1 °F - 75.9 °F 93% 29.99 in 7.0 mi ESE 6.9 mph - N/A   Mostly Cloudy
8:29 AM 78.1 °F - 75.0 °F 90% 29.99 in 7.0 mi SE 6.9 mph - N/A   Mostly Cloudy
8:32 AM 78.1 °F - 75.0 °F 90% 30.00 in 7.0 mi SE 8.1 mph - N/A   Mostly Cloudy
8:36 AM 79.0 °F - 75.0 °F 88% 30.00 in 8.0 mi ESE 6.9 mph - N/A   Mostly Cloudy
8:50 AM 78.8 °F - 73.4 °F 83% 30.00 in 10.0 mi SE 12.7 mph - N/A   Mostly Cloudy
8:54 AM 79.0 °F - 73.9 °F 84% 29.99 in 10.0 mi SE 11.5 mph - N/A   Mostly Cloudy
9:01 AM 79.0 °F - 73.0 °F 82% 30.00 in 10.0 mi SSE 12.7 mph - N/A   Scattered Clouds
9:54 AM 81.0 °F 84.4 °F 70.0 °F 69% 29.95 in 10.0 mi Calm Calm - N/A   Clear
10:54 AM 84.0 °F 89.0 °F 71.1 °F 65% 29.95 in 10.0 mi ENE 8.1 mph - N/A   Clear
11:54 AM 84.0 °F 88.4 °F 70.0 °F 63% 29.96 in 10.0 mi East 8.1 mph - N/A   Scattered Clouds
12:40 PM 82.9 °F 87.5 °F 71.1 °F 67% 29.95 in 10.0 mi East 13.8 mph - N/A   Mostly Cloudy
12:50 PM 84.2 °F 89.6 °F 71.6 °F 66% 29.95 in 10.0 mi ESE 9.2 mph - N/A   Scattered Clouds
12:54 PM 84.0 °F 89.0 °F 71.1 °F 65% 29.95 in 10.0 mi ESE 10.4 mph - N/A   Scattered Clouds
1:54 PM 82.0 °F 86.3 °F 71.1 °F 69% 29.90 in 10.0 mi ENE 9.2 mph - N/A   Clear
2:54 PM 82.9 °F 87.0 °F 70.0 °F 65% 29.88 in 10.0 mi NNE 11.5 mph - N/A   Clear
3:37 PM 75.9 °F - 72.0 °F 87% 29.88 in 2.5 mi NE 9.2 mph - 0.08 in Rain Light Rain
3:45 PM 75.9 °F - 72.0 °F 87% 29.89 in 3.0 mi East 11.5 mph - 0.12 in Rain Light Rain
3:49 PM 75.2 °F - 71.6 °F 89% 29.89 in 1.8 mi East 8.1 mph - 0.16 in Rain Heavy Rain
3:54 PM 75.0 °F - 72.0 °F 90% 29.87 in 1.2 mi East 5.8 mph - 0.20 in Rain Heavy Rain
3:59 PM 75.0 °F - 72.0 °F 90% 29.88 in 2.0 mi East 8.1 mph - 0.01 in Rain Light Rain
4:07 PM 75.0 °F - 72.0 °F 90% 29.87 in 3.0 mi Variable 6.9 mph - 0.03 in Rain Light Rain
4:37 PM 73.9 °F - 71.1 °F 91% 29.85 in 5.0 mi North 8.1 mph - 0.07 in Rain , Thunderstorm Light Thunderstorms and Rain
4:52 PM 73.4 °F - 71.6 °F 94% 29.83 in 7.0 mi North 10.4 mph - 0.08 in Rain Light Rain
4:54 PM 73.9 °F - 71.1 °F 91% 29.83 in 8.0 mi North 10.4 mph - 0.08 in Rain Light Rain
5:54 PM 75.0 °F - 72.0 °F 90% 29.79 in 10.0 mi North 11.5 mph - 0.01 in   Overcast
6:54 PM 75.9 °F - 73.0 °F 91% 29.80 in 10.0 mi NW 10.4 mph - 0.00 in   Partly Cloudy
7:54 PM 75.9 °F - 72.0 °F 87% 29.80 in 9.0 mi North 12.7 mph - 0.00 in   Partly Cloudy
8:54 PM 75.9 °F - 72.0 °F 87% 29.82 in 8.0 mi North 12.7 mph - 0.03 in Rain Light Rain
9:54 PM 75.0 °F - 73.0 °F 94% 29.84 in 10.0 mi WNW 12.7 mph - 0.00 in   Partly Cloudy
10:54 PM 75.9 °F - 71.1 °F 85% 29.85 in 10.0 mi WNW 9.2 mph - N/A   Overcast
11:54 PM 75.0 °F - 71.1 °F 87% 29.86 in 10.0 mi WNW 8.1 mph - N/A   Scattered Clouds